Regional Weather Roundup
Issued by NWS Bismarck, ND

Home | Current Version | Previous Version | Text Only | Print | Product List | Glossary On
Versions: 1 2 3 4 5 6 7 8 9 10 11 12 13 14 15 16 17 18 19 20 21 22 23 24 25 26 27 28 29 30 31 32 33 34 35 36 37 38 39 40 41 42 43 44 45 46 47 48 49 50
000
ASUS43 KBIS 011210
RWRBIS

NWR BROADCAST TEXT
NATIONAL WEATHER SERVICE BISMARCK ND
700 AM CDT MON SEP 01 2014

NOTE: "FAIR" INDICATES FEW OR NO CLOUDS BELOW 12,000 FEET WITH NO
SIGNIFICANT WEATHER AND/OR OBSTRUCTIONS TO VISIBILITY.


CITY           SKY/WX    TMP DP  RH WIND       PRES   REMARKS
WILLISTON      CLEAR     49  45  86 CALM      29.81S
MINOT          PTCLDY    52  48  86 SW6       29.73S
MINOT AFB      PTCLDY    49  49  99 W6        29.72S
BISMARCK       CLEAR     50  50 100 SW6       29.78S
DICKINSON      CLEAR     49  45  86 W9        29.80R
GARRISON         N/A     49  48  97 NW7       29.75S
HETTINGER ARPT CLEAR     44  42  93 W3        29.84S
JAMESTOWN      CLEAR     54  52  93 W3        29.74R
BEACH            N/A     48  48 100 W8        29.85R
CARRINGTON     FAIR      48  48 100 W5        29.75R
CROSBY         FAIR      48  48 100 E5        29.80R
HARVEY         FAIR      48  48 100 W5        29.74R
HAZEN          FAIR      48  48 100 SW6       29.78R
LINTON         FAIR      48  48 100 CALM      29.78S
MANDAN         FAIR      48  48 100 SW8       29.78S
OAKES            N/A     55  55 100 NW3       29.74S
RUGBY          FAIR      48  48 100 W6        29.72R
STANLEY        FAIR      48  48 100 NW7       29.78R
TIOGA          FAIR      48  48 100 NW7       29.82R
WATFORD CITY   FAIR      45  45 100 SW5       29.79S
$$

CITY           SKY/WX    TMP DP  RH WIND       PRES   REMARKS
GRAND FORKS    PTCLDY    52  51  97 W6        29.68R
GRAND FORKS AF PTCLDY    52  52 100 W6        29.69R
DEVILS LAKE    CLEAR     54  48  82 CALM      29.70R
FARGO          PTCLDY    52  50  93 SW6       29.70R
CANDO          FAIR      48  48 100 W6        29.71R
CAVALIER       FAIR      50  50 100 W5        29.67R
GRAFTON        FAIR      52  52 100 W7        29.68R
GWINNER        MOSUNNY   57  55  94 NW8       29.74R
LANGDON        FAIR      45  45 100 SW5       29.69S FOG
ROLLA          FAIR      48  48 100 CALM      29.71R
WALHALLA       FAIR      50  50 100 CALM      29.67S
$$

CITY           SKY/WX    TMP DP  RH WIND       PRES   REMARKS
ABERDEEN       CLEAR     53  53 100 W9        29.77R
MOBRIDGE       CLEAR     50  49  96 CALM      29.79R
BUFFALO          N/A     49  45  86 W9        29.81S
RAPID CITY     PTCLDY    49  45  86 W5        29.91R
GLASGOW        CLEAR     48  46  93 NW6       29.85R
SIDNEY         PTCLDY    48  46  93 CALM      29.84R
WOLF POINT     CLEAR     47  44  90 SW5       29.85R
GLENDIVE       MOCLDY    50  48  93 NW5       29.85R
MILES CITY     PTCLDY    50  44  80 W8        29.88R
BAKER          CLOUDY    51  46  83 W8        29.87R
$$

CITY           SKY/WX    TMP DP  RH WIND       PRES   REMARKS
BILLINGS       CLOUDY    55  46  71 SW12      29.96S
GREAT FALLS    CLOUDY    50  40  68 SW9       29.95R
ESTEVAN        MOCLDY    52  52 100 W5        29.79S
$$




USA.gov is the U.S. government's official web portal to all federal, state and local government web resources and services.